This is the latest recevied weather packets stored in our database for station/object OK2ILA-3. If no packets are shown the sender has not sent any weather packets the latest 10 day(s).
| Time | Temp. | Humidity | Pressure | Rain* | Wind** | Luminosity | Snow |
|---|---|---|---|---|---|---|---|
| 1778054989 | 20° C | 55% | 12.5 hPa | 0 mm | - | - | - |
| 1778054385 | 20° C | 100% | 12.5 hPa | 0 mm | - | - | - |
| 1778053776 | 18.89° C | 28% | 12.8 hPa | 0 mm | - | - | - |
| 1778053172 | 18.89° C | 100% | 12.8 hPa | 0 mm | - | - | - |
| 1778052565 | 19.44° C | 28% | 12.8 hPa | 0 mm | - | - | - |
| 1778051960 | 18.89° C | 55% | 4352 hPa | 0 mm | - | - | - |
| 1778051355 | 18.33° C | 54% | 4352 hPa | 0 mm | - | - | - |
| 1778050750 | 17.78° C | 86% | 3532.8 hPa | 0 mm | - | - | - |
| 1778050144 | 17.78° C | 1% | 140.8 hPa | 0 mm | - | - | - |
| 1778049540 | 17.22° C | 12% | 140.8 hPa | 0 mm | - | - | - |
| 1778048934 | 16.67° C | 12% | 5325.5 hPa | 0 mm | - | - | - |
| 1778048326 | 16.11° C | 100% | 188.8 hPa | 0 mm | - | - | - |
| 1778047720 | 15° C | 48% | 4352 hPa | 0 mm | - | - | - |
| 1778046508 | 13.33° C | 2% | 4352 hPa | 0 mm | - | - | - |
| 1778045904 | 12.78° C | 100% | 4352 hPa | 0 mm | - | - | - |
| 1778045298 | 12.78° C | 44% | 2688.2 hPa | 0 mm | - | - | - |
| 1778044691 | 12.78° C | 54% | 2688.2 hPa | 0 mm | - | - | - |
| 1778044086 | 12.22° C | 12% | 5325.5 hPa | 0 mm | - | - | - |
| 1778043480 | 12.22° C | 28% | 5325.5 hPa | 0 mm | - | - | - |
| 1778042875 | 12.22° C | 54% | 5325.5 hPa | 0 mm | - | - | - |
| 1778042270 | 11.67° C | 100% | 5325.5 hPa | 0 mm | - | - | - |
| 1778041664 | 11.67° C | 28% | 0 hPa | 0 mm | - | - | - |
| 1778041059 | 11.67° C | 100% | 14.7 hPa | 0 mm | - | - | - |
| 1778039846 | 11.11° C | 13% | 94.2 hPa | 0 mm | - | - | - |
| 1778039241 | 11.11° C | 28% | 409.6 hPa | 0 mm | - | - | - |
* Rain latest 24 hours (hover to see other rain measurements)
** Current wind speed in m/s (hover to see current wind gust speed)